Temperature
7 7 7 7 7 7 7 7 7 7 7 7 8 8 8 8 9 9 9 9 9 10 10 10 10 10 10 11 11 11 10 10 10 10 9 9 9 9 10 10 10 10 9
7 7 7 7 6 6 6 6 6 6 6 7 7 7 8 8 8 8 9 9 9 9 9 10 10 10 10 10 10 10 10 10 10 10 9 9 9 9 9 9 9 9 9
6 6 6 6 6 6 6 6 6 6 6 6 7 7 7 7 7 8 8 8 8 9 9 9 10 9 10 10 10 10 10 9 9 10 10 9 9 9 9 9 9 9 9
6 6 6 6 6 6 6 6 6 6 6 6 6 6 6 6 7 7 8 8 8 8 9 9 9 9 9 10 10 10 10 10 9 9 10 10 10 9 9 9 9 9 9
5 5 5 5 5 5 5 6 6 6 6 6 6 6 6 6 7 7 7 7 7 8 8 9 9 9 9 9 9 10 10 9 9 9 9 10 10 10 9 9 9 9 9
5 5 5 5 5 5 5 5 5 5 6 6 6 6 6 6 6 7 7 7 7 7 8 8 8 9 9 9 9 9 9 9 9 9 9 10 10 10 10 10 9 9 9
5 5 5 5 5 5 5 5 5 5 5 5 6 6 6 6 6 6 6 6 7 7 8 8 8 8 8 9 9 9 9 9 9 9 9 10 10 11 11 11 10 9 9
5 4 4 4 4 4 4 4 4 5 5 5 5 5 5 5 6 6 6 6 7 7 7 7 7 8 8 8 9 9 9 9 9 9 9 9 10 10 10 11 10 9 8
4 4 4 4 4 4 4 4 4 4 5 5 5 5 5 5 6 6 6 6 7 7 7 7 7 7 7 8 8 8 8 8 8 9 9 9 9 10 10 10 10 10 8
4 4 4 4 4 4 4 4 4 4 4 4 5 5 5 5 5 5 6 6 7 7 7 7 7 7 7 7 8 8 8 8 8 8 8 9 9 9 9 10 10 10 10
4 4 4 4 4 4 4 4 4 4 4 4 5 5 5 5 5 5 6 6 6 6 7 7 7 7 7 7 8 7 8 8 8 8 8 9 9 9 9 9 9 9 10
3 3 3 4 3 3 3 3 3 3 4 4 4 5 5 5 5 5 6 6 6 6 6 7 7 7 7 7 7 7 8 8 8 8 8 8 9 9 9 9 9 9 9
3 3 3 3 3 3 3 3 3 3 3 4 4 4 4 4 5 5 5 6 6 6 6 7 7 7 7 7 7 7 8 8 8 8 8 9 9 9 9 9 9 9 9
3 3 3 3 3 2 3 3 3 3 3 3 4 4 4 4 4 4 5 5 6 6 6 6 7 7 7 7 7 7 8 8 8 8 8 9 9 9 9 9 9 9 8
3 3 3 2 2 2 2 2 2 3 3 3 3 3 4 4 4 4 5 5 6 6 6 6 6 6 7 7 7 7 8 8 8 8 8 9 9 9 9 9 9 8 8
3 3 2 2 2 2 2 2 2 2 2 2 3 3 3 4 4 4 5 5 5 6 6 6 6 6 6 7 7 7 7 8 8 8 8 9 9 9 9 9 9 9 8
2 2 2 2 1 1 2 2 2 2 2 2 3 3 3 3 4 4 4 5 5 5 6 6 6 6 6 7 7 7 7 8 8 8 8 8 8 8 8 8 8 8 8
2 2 2 1 1 1 1 2 2 2 2 2 2 2 3 3 3 4 4 4 5 5 5 6 6 6 6 7 7 7 7 8 8 8 8 8 8 8 8 8 8 8 8
2 1 1 1 1 1 1 1 2 2 2 2 2 2 2 3 3 3 4 4 4 5 5 5 5 6 6 7 7 7 7 7 8 8 8 8 8 8 8 8 8 8 7
1 1 1 1 1 1 1 1 1 2 2 2 2 2 2 2 3 3 4 4 4 4 5 5 5 5 6 6 6 7 7 7 7 7 8 8 8 8 8 7 7 7 7
1 1 1 1 1 1 1 1 1 1 2 2 2 2 2 2 2 3 3 4 4 4 4 5 5 5 5 6 6 7 7 7 7 7 7 7 7 7 7 7 7 7 7
0 0 0 0 1 0 0 1 1 1 1 1 2 2 2 2 2 3 3 3 3 4 4 4 5 5 5 5 6 6 7 7 7 7 7 7 7 7 7 7 7 7 7
-0 -0 -0 -0 0 0 0 0 1 1 1 1 1 1 2 2 2 2 3 3 3 3 3 4 4 4 5 5 5 6 6 7 7 7 7 7 7 7 7 7 7 6 6
-1 -1 -1 -1 -0 0 0 0 0 1 1 1 1 1 1 1 2 2 2 2 2 3 3 3 3 4 4 4 5 6 6 6 7 7 7 7 7 6 6 6 6 6 6
-1 -1 -1 -1 -1 -0 -0 -0 0 0 0 0 0 1 1 1 1 1 2 2 2 2 2 2 3 3 3 4 5 5 6 6 6 6 6 6 6 6 6 6 5 5 5
-2 -2 -1 -1 -1 -1 -1 -0 -0 -0 -0 -0 -0 0 0 1 1 1 1 2 2 2 2 2 3 3 4 4 5 5 5 5 6 6 6 6 6 6 5 5 5 5 5
Wind_Speed
9 7 7 7 7 7 7 7 8 7 7 4 4 4 5 5 5 6 8 9 9 10 9 8 8 9 9 10 10 8 9 7 8 6 4 2 2 4 5 5 6 6 8
10 9 8 7 7 7 8 8 8 8 8 6 6 5 5 5 6 6 7 9 9 10 9 9 9 10 9 10 10 10 7 6 9 7 7 4 2 3 5 5 6 7 6
9 10 9 9 8 8 8 9 9 10 9 8 6 5 4 4 5 6 6 8 10 10 10 11 10 11 11 11 12 13 10 10 8 8 7 6 6 3 3 5 6 7 6
8 9 10 10 9 10 10 10 9 10 9 8 7 7 7 7 8 7 7 9 10 10 11 12 11 12 11 11 13 13 10 12 11 9 4 3 5 5 4 3 5 7 7
8 9 11 10 10 10 10 9 10 10 10 9 9 8 9 8 7 6 8 9 9 10 11 12 12 13 12 12 12 12 13 12 12 9 6 4 3 4 5 5 6 4 5
9 10 10 10 10 10 9 9 10 11 10 10 10 9 10 9 9 9 9 9 8 8 10 11 12 13 12 13 13 13 15 13 11 9 7 7 6 6 5 5 7 6 4
9 11 12 12 12 12 11 10 11 12 11 10 10 10 10 10 11 11 10 10 8 8 10 11 11 12 13 13 12 13 14 15 14 11 8 7 6 5 4 5 5 3 2
10 11 12 12 12 13 12 11 12 13 11 9 9 8 8 8 8 10 10 10 9 9 10 11 12 13 13 14 12 12 13 13 14 12 10 8 7 6 5 6 7 5 2
12 12 13 12 12 12 13 12 13 12 11 10 8 7 8 8 9 10 10 9 9 8 11 11 12 12 13 14 13 11 14 13 13 12 11 9 7 7 5 5 7 7 6
12 13 13 12 11 11 12 12 12 12 11 10 9 7 7 8 9 9 10 10 10 10 10 11 12 11 12 13 12 12 13 14 13 11 12 10 7 7 6 6 5 5 5
13 13 13 12 11 11 12 12 12 12 11 10 9 7 7 7 8 9 9 9 9 10 10 11 11 12 12 14 13 13 14 15 14 13 13 11 9 9 8 7 6 5 4
12 12 13 12 11 12 12 12 11 11 11 10 9 7 6 6 7 8 8 8 9 10 11 11 12 12 12 13 14 14 15 16 15 15 14 13 10 11 9 8 7 6 5
13 12 11 11 11 12 12 11 11 11 11 9 9 7 7 6 7 8 8 8 8 9 10 11 12 12 12 13 14 15 15 16 15 16 15 14 13 12 10 9 8 6 5
13 12 11 10 11 11 12 12 12 11 10 9 9 8 8 7 7 8 8 7 6 6 8 9 10 11 12 12 13 13 13 14 14 14 14 14 15 14 13 11 10 8 6
13 12 12 11 11 11 11 11 12 11 10 9 8 8 8 7 7 7 6 5 5 5 6 8 8 9 10 11 11 12 12 13 13 13 12 13 15 16 14 11 11 11 8
13 13 13 13 13 12 12 12 11 11 9 9 8 8 9 8 7 5 5 5 4 3 4 6 7 7 7 10 12 12 11 12 13 13 12 12 14 16 16 16 15 14 12
14 13 13 13 13 12 11 11 11 9 9 9 8 8 9 9 6 5 5 5 4 3 3 3 5 6 6 9 11 12 11 11 13 13 12 11 11 14 12 13 14 12 13
13 13 12 13 12 11 11 11 10 9 8 8 8 8 9 8 7 6 5 5 3 2 1 2 3 4 6 7 10 11 10 10 11 12 13 13 13 13 14 12 10 8 7
12 12 11 12 11 11 11 11 10 9 9 9 8 8 8 7 7 7 6 4 2 2 1 1 2 3 4 6 7 10 9 9 9 10 12 14 14 17 19 14 12 9 6
11 11 11 11 11 11 10 10 10 9 9 9 8 8 7 6 7 7 6 3 2 2 1 1 1 2 3 4 6 7 8 9 8 8 10 15 16 19 20 15 14 12 9
12 11 11 10 11 11 9 9 10 10 10 9 8 7 6 6 6 6 5 3 2 2 1 1 1 2 3 4 5 6 7 9 9 8 9 10 18 19 19 16 12 14 13
12 11 10 11 11 9 8 9 10 10 9 8 7 7 5 5 5 5 5 4 1 1 1 1 1 1 1 3 4 5 7 9 9 8 8 10 18 19 19 14 15 20 16
12 10 9 11 11 9 7 9 11 9 8 7 7 6 5 5 5 4 5 4 2 1 1 1 1 2 1 1 3 5 7 9 8 8 12 15 18 17 15 17 20 17 11
11 9 9 10 11 10 8 9 10 8 6 7 7 6 5 6 5 4 4 4 3 2 2 2 2 2 1 1 2 3 5 8 8 9 13 16 16 13 13 15 13 9 9
10 9 9 10 11 10 9 9 8 6 5 6 7 5 5 5 5 5 4 5 4 3 3 3 3 3 3 3 3 3 4 5 8 9 8 8 9 9 9 9 9 8 8
10 10 10 10 11 10 10 8 6 5 5 6 6 4 4 4 4 5 6 7 6 6 6 6 5 3 3 4 3 3 5 8 13 11 9 10 10 11 11 10 9 8 8
Wind_Direction
289 293 296 296 292 292 291 287 286 286 283 267 257 245 239 241 244 237 229 227 223 214 206 207 203 199 193 192 185 177 174 177 163 150 146 115 143 183 186 179 176 182 182
319 318 311 304 291 285 287 289 290 285 277 262 251 246 239 241 240 241 235 231 224 216 213 204 205 203 193 191 188 175 174 179 173 162 152 150 174 214 200 188 187 186 180
310 316 315 308 302 294 287 288 287 284 281 274 265 261 255 249 242 241 237 238 227 217 215 211 208 205 194 193 191 182 178 181 185 178 166 164 188 175 200 202 194 186 187
311 316 316 311 307 297 289 283 280 280 275 269 258 249 245 248 248 241 240 240 228 221 219 213 210 208 199 194 196 188 182 178 184 187 195 175 152 156 170 195 195 191 193
311 315 315 309 305 302 296 288 285 282 274 264 252 248 252 252 252 246 242 241 232 222 222 216 212 208 202 196 197 191 187 187 189 185 176 161 149 139 157 181 187 192 200
315 313 313 314 311 307 306 301 293 289 278 265 256 246 248 252 251 247 240 238 235 226 221 221 216 208 203 199 199 196 193 194 192 189 180 172 168 170 160 174 184 188 190
312 314 317 317 315 313 311 309 304 296 286 271 260 249 243 243 244 242 234 236 234 232 223 221 216 210 205 200 198 199 199 196 191 193 191 185 183 169 159 157 167 166 161
312 314 310 309 310 310 312 310 307 301 292 278 265 251 249 246 248 245 239 234 233 231 224 222 214 213 207 202 198 202 203 199 196 193 190 185 182 175 170 165 161 162 166
313 313 312 310 310 310 309 307 305 304 302 295 281 259 252 250 254 259 249 238 233 228 219 222 215 212 208 202 198 205 202 199 198 193 190 187 185 178 174 170 167 167 180
312 313 313 310 309 308 306 307 307 306 306 301 292 276 261 256 254 256 255 238 228 224 218 220 213 210 210 204 200 206 203 199 200 193 189 189 184 176 169 173 174 172 169
306 309 311 310 310 314 312 310 310 312 311 308 300 285 274 269 263 257 255 246 234 224 217 219 211 209 211 204 199 206 200 198 199 193 189 190 180 176 173 173 173 171 158
302 305 307 311 315 317 316 316 314 314 311 309 306 292 279 277 275 273 268 254 240 225 218 216 210 209 211 204 202 204 200 196 197 194 187 187 183 177 175 176 177 178 168
308 310 311 312 314 315 315 317 317 317 316 313 310 303 293 283 280 280 282 268 248 228 214 210 208 207 208 204 204 203 199 196 195 191 187 184 180 182 179 177 177 174 168
308 309 310 310 311 313 313 315 316 316 318 315 311 307 302 286 282 284 281 273 254 233 215 213 210 208 207 203 203 199 197 195 193 190 187 184 184 184 179 179 177 170 163
310 309 309 309 311 312 312 313 315 317 318 316 311 308 308 295 289 289 283 276 253 244 225 211 211 208 206 200 198 196 193 193 189 187 187 186 180 180 179 178 174 170 169
308 308 309 310 310 309 310 313 313 313 314 313 311 315 317 313 300 291 293 294 274 254 238 212 206 207 210 201 199 195 190 190 187 185 184 179 171 171 173 171 171 172 172
303 304 305 305 304 304 305 308 310 311 313 311 314 317 317 315 306 298 302 299 291 273 243 215 206 206 203 200 195 191 191 190 188 183 179 176 174 169 168 165 166 169 170
299 301 302 304 303 302 305 307 308 309 311 310 313 315 317 316 317 305 298 300 277 268 251 237 214 204 203 198 188 178 183 187 188 184 178 172 170 171 165 162 162 164 170
292 295 296 298 302 304 306 309 310 309 310 307 307 310 312 311 314 312 300 298 300 295 269 254 217 200 199 189 186 176 176 179 181 181 175 170 170 167 160 160 159 151 142
295 297 301 303 303 304 308 309 309 308 305 303 299 300 301 303 306 308 309 303 303 293 301 279 233 205 202 196 188 184 176 176 176 175 172 170 168 167 163 165 163 160 155
296 298 299 300 298 303 308 304 306 303 300 300 299 299 297 301 305 309 312 311 307 310 305 289 271 222 212 199 192 190 179 175 172 174 174 172 164 163 165 165 166 161 150
300 300 300 299 299 302 303 301 299 297 303 305 305 305 307 311 316 318 322 324 305 302 300 306 325 274 212 207 194 190 180 172 174 174 170 165 160 158 159 162 153 144 139
298 299 297 299 302 301 296 295 297 300 306 307 307 308 310 312 315 318 321 324 313 271 283 285 291 294 268 219 193 173 170 166 169 165 157 154 154 153 156 153 148 145 144
299 301 302 303 303 304 299 292 298 301 304 305 308 313 317 319 320 319 314 310 303 287 272 273 271 283 270 207 165 162 154 153 152 147 145 145 145 147 148 148 147 148 153
301 302 300 299 299 304 304 303 304 306 307 305 305 310 313 313 316 317 309 305 292 269 264 255 236 237 246 220 192 179 171 168 158 146 142 145 151 153 149 146 146 144 145
304 305 304 302 302 304 302 304 305 300 300 303 305 307 313 314 317 324 329 325 308 309 294 278 272 266 230 210 194 184 166 159 153 148 154 158 159 160 158 155 151 151 153
Height
1443 1441 1439 1437 1434 1432 1430 1428 1426 1425 1423 1421 1420 1420 1419 1420 1421 1422 1424 1425 1427 1428 1429 1432 1436 1440 1443 1446 1449 1454 1459 1463 1467 1472 1476 1481 1484 1488 1490 1493 1496 1499 1502
1439 1437 1435 1433 1431 1428 1426 1424 1422 1420 1418 1417 1415 1415 1414 1414 1415 1416 1417 1419 1420 1421 1423 1425 1429 1433 1436 1440 1444 1447 1452 1457 1461 1465 1470 1475 1481 1482 1486 1489 1491 1495 1498
1438 1436 1433 1430 1428 1425 1422 1420 1418 1415 1413 1411 1410 1409 1408 1407 1408 1408 1409 1411 1413 1414 1416 1418 1421 1425 1428 1432 1436 1441 1444 1449 1455 1460 1463 1467 1470 1476 1481 1483 1487 1490 1494
1437 1434 1431 1428 1424 1421 1418 1415 1412 1410 1408 1406 1404 1402 1400 1399 1399 1400 1402 1404 1406 1407 1409 1412 1415 1418 1421 1425 1430 1434 1439 1443 1447 1454 1457 1460 1461 1467 1473 1478 1481 1486 1489
1436 1432 1429 1426 1422 1418 1414 1411 1407 1404 1401 1400 1398 1396 1394 1393 1393 1394 1395 1397 1398 1400 1402 1404 1407 1411 1414 1418 1423 1427 1432 1437 1441 1444 1449 1453 1456 1459 1463 1468 1475 1480 1484
1434 1430 1427 1423 1419 1414 1410 1406 1402 1397 1395 1392 1390 1389 1387 1387 1387 1387 1388 1389 1390 1392 1393 1397 1400 1403 1407 1411 1416 1420 1425 1430 1435 1439 1442 1446 1449 1453 1458 1462 1468 1473 1478
1432 1428 1424 1419 1414 1409 1405 1401 1396 1391 1388 1385 1383 1382 1381 1381 1380 1380 1381 1381 1382 1383 1385 1390 1392 1396 1399 1404 1409 1414 1419 1423 1428 1432 1437 1442 1446 1450 1454 1458 1463 1468 1472
1429 1425 1421 1417 1411 1406 1401 1396 1391 1386 1382 1379 1376 1375 1375 1375 1374 1374 1374 1374 1375 1377 1379 1382 1386 1389 1393 1397 1402 1407 1412 1417 1422 1426 1432 1436 1441 1446 1450 1454 1457 1462 1467
1426 1422 1417 1413 1408 1402 1397 1392 1386 1382 1377 1373 1371 1369 1369 1368 1367 1367 1367 1368 1369 1370 1373 1376 1379 1382 1386 1390 1394 1400 1405 1410 1415 1421 1426 1431 1436 1441 1445 1449 1453 1457 1460
1422 1418 1414 1409 1404 1398 1393 1387 1382 1377 1372 1368 1366 1364 1363 1362 1361 1361 1360 1361 1362 1364 1366 1368 1372 1375 1379 1383 1388 1393 1398 1403 1409 1415 1420 1425 1430 1436 1440 1445 1449 1453 1455
1419 1414 1410 1405 1400 1395 1389 1383 1378 1372 1368 1364 1361 1358 1357 1357 1356 1355 1354 1354 1355 1357 1359 1362 1365 1368 1372 1376 1381 1386 1391 1396 1402 1408 1413 1419 1425 1430 1435 1440 1444 1448 1451
1416 1411 1406 1401 1395 1390 1385 1379 1374 1369 1364 1360 1357 1355 1353 1352 1350 1349 1348 1349 1349 1350 1353 1356 1359 1362 1366 1369 1375 1379 1384 1389 1395 1400 1406 1412 1419 1424 1430 1435 1439 1443 1447
1411 1406 1402 1397 1392 1387 1382 1376 1371 1366 1361 1357 1353 1351 1349 1347 1345 1344 1342 1343 1343 1344 1346 1350 1352 1355 1359 1363 1368 1373 1377 1382 1388 1394 1400 1406 1413 1418 1424 1429 1433 1438 1443
1407 1402 1397 1393 1388 1383 1379 1373 1368 1363 1359 1355 1351 1348 1346 1343 1341 1340 1338 1337 1337 1338 1340 1344 1347 1350 1353 1357 1362 1367 1372 1377 1382 1388 1394 1400 1406 1412 1418 1423 1428 1433 1437
1403 1399 1394 1389 1384 1380 1375 1370 1365 1361 1357 1353 1349 1345 1342 1340 1338 1336 1335 1334 1334 1335 1336 1339 1342 1345 1348 1352 1356 1361 1366 1371 1377 1383 1389 1394 1401 1408 1413 1418 1423 1427 1432
1400 1395 1391 1386 1381 1376 1371 1367 1362 1358 1354 1351 1347 1343 1340 1337 1335 1333 1332 1330 1330 1331 1332 1334 1337 1340 1342 1347 1352 1356 1361 1366 1372 1377 1383 1389 1396 1402 1408 1413 1418 1423 1426
1397 1392 1388 1383 1378 1373 1368 1363 1359 1354 1351 1347 1344 1341 1338 1335 1332 1330 1329 1328 1327 1327 1328 1330 1333 1335 1339 1343 1347 1352 1357 1362 1367 1372 1377 1384 1390 1396 1402 1408 1414 1418 1422
1394 1389 1384 1379 1374 1369 1365 1360 1356 1352 1348 1344 1341 1339 1336 1333 1330 1328 1326 1325 1325 1325 1325 1327 1330 1332 1336 1339 1342 1347 1353 1358 1363 1367 1372 1378 1384 1391 1397 1403 1408 1413 1418
1391 1386 1381 1376 1370 1366 1361 1357 1353 1349 1345 1342 1339 1336 1333 1331 1328 1326 1325 1324 1323 1323 1323 1325 1327 1329 1332 1335 1338 1343 1348 1353 1358 1363 1369 1374 1380 1386 1393 1398 1403 1408 1413
1386 1382 1377 1372 1367 1363 1359 1354 1350 1346 1342 1339 1337 1334 1331 1329 1327 1325 1323 1323 1322 1322 1322 1323 1325 1327 1330 1332 1335 1339 1343 1348 1353 1359 1364 1370 1376 1382 1388 1393 1398 1403 1408
1381 1377 1373 1368 1364 1359 1355 1351 1347 1343 1340 1337 1334 1331 1329 1327 1325 1323 1322 1321 1321 1320 1320 1321 1323 1325 1327 1329 1332 1335 1339 1343 1348 1354 1359 1365 1371 1378 1384 1390 1395 1399 1405
1376 1372 1368 1363 1359 1356 1352 1347 1344 1341 1337 1334 1331 1329 1327 1325 1323 1321 1320 1320 1319 1319 1319 1319 1320 1322 1324 1327 1329 1332 1336 1341 1346 1351 1356 1362 1368 1374 1381 1386 1392 1397 1402
1371 1368 1363 1358 1354 1351 1348 1344 1340 1337 1334 1331 1328 1326 1324 1323 1321 1320 1319 1318 1318 1317 1317 1317 1318 1320 1322 1323 1326 1329 1334 1338 1343 1348 1354 1359 1365 1371 1377 1383 1389 1394 1398
1366 1362 1358 1354 1350 1347 1344 1340 1336 1333 1330 1328 1325 1323 1321 1320 1319 1318 1318 1317 1316 1315 1315 1316 1316 1317 1318 1320 1322 1326 1331 1336 1341 1346 1351 1357 1363 1369 1374 1380 1385 1390 1395
1361 1358 1354 1350 1346 1343 1339 1336 1333 1330 1327 1325 1323 1321 1320 1318 1317 1316 1316 1315 1315 1315 1315 1315 1315 1315 1315 1318 1321 1324 1328 1333 1337 1342 1348 1353 1359 1365 1370 1376 1381 1386 1391
1357 1353 1349 1345 1342 1338 1335 1333 1330 1327 1325 1322 1321 1319 1317 1316 1315 1314 1313 1313 1313 1313 1314 1314 1314 1313 1315 1316 1320 1323 1327 1331 1335 1340 1344 1350 1355 1361 1366 1371 1377 1382 1387